Hutchinson, MN

6:56 PM CDT on July 21, 2017 (GMT -0500)
Hutchinson Municipal-Butler

Weather History for KHCD - October, 2014

Change the Weather History Date:

Thursday, October 16, 2014

  Actual Average Record
Temperature  
Mean Temperature 54 °F -  
Max Temperature 72 °F 57 °F 82 °F (1961)
Min Temperature 37 °F 34 °F 1 °F (2004)
Degree Days  
Heating Degree Days 10    
Growing Degree Days 4 (Base 50)    
Moisture  
Dew Point 42 °F    
Average Humidity 64    
Maximum Humidity 91    
Minimum Humidity 37    
Precipitation  
Precipitation 0.00 in - - ()
Sea Level Pressure  
Sea Level Pressure 29.69 in    
Wind  
Wind Speed 7 mph (SW)    
Max Wind Speed 25 mph    
Max Gust Speed 32 mph    
Visibility 10 miles    
Events      
Averages and records for this station are not official NWS values.
T = Trace of Precipitation, MM = Missing Value Source: NWS Daily Summary

Daily Weather History Graph

Daily Weather History Graph

Search for Another Location

Airport or City:

Trip Planner

Search our weather history database for the weather conditions in past years. The results will help you decide how hot, cold, wet, or windy it might be!

Date:

Astronomy

Oct. 16, 2014 Rise Set
Actual Time 7:34 AM CDT 6:30 PM CDT
Civil Twilight 7:04 AM CDT 7:00 PM CDT
Nautical Twilight 6:30 AM CDT 7:34 PM CDT
Astronomical Twilight 5:56 AM CDT 8:08 PM CDT
Moon 12:29 AM CDT (10/16) 2:57 PM CDT (10/16)
Length of Visible Light 11h 55m
Length of Day
10h 56m
Last Quarter, 41% of the Moon is Illuminated
Oct 16
Last Quarter
Oct 23
New
Oct 30
First Quarter
Nov 6
Full
Nov 14
Last Quarter

Hourly Weather History & Observations

Time (CDT) Temp. Windchill Dew Point Humidity Pressure Visibility Wind Dir Wind Speed Gust Speed Precip Events Conditions
12:13 AM 42.4 °F 38.8 °F 37.0 °F 81% 29.85 in 10.0 mi ESE 5.8 mph - N/A   Clear
12:32 AM 40.8 °F - 36.3 °F 84% 29.85 in 10.0 mi Calm Calm - N/A   Clear
12:53 AM 38.5 °F - 36.1 °F 91% 29.85 in 10.0 mi Calm Calm - N/A   Clear
1:13 AM 41.0 °F - 37.2 °F 86% 29.84 in 10.0 mi Calm Calm - N/A   Clear
1:32 AM 39.2 °F - 36.0 °F 88% 29.85 in 10.0 mi Calm Calm - N/A   Clear
1:53 AM 39.4 °F - 35.2 °F 85% 29.85 in 10.0 mi Calm Calm - N/A   Clear
2:12 AM 38.5 °F - 35.4 °F 89% 29.85 in 10.0 mi Calm Calm - N/A   Clear
2:32 AM 39.0 °F - 36.1 °F 89% 29.84 in 10.0 mi Calm Calm - N/A   Clear
2:53 AM 38.3 °F - 35.4 °F 89% 29.84 in 10.0 mi Calm Calm - N/A   Clear
3:12 AM 41.7 °F 39.8 °F 37.0 °F 83% 29.83 in 10.0 mi ESE 3.5 mph - N/A   Clear
3:33 AM 41.5 °F 39.6 °F 36.7 °F 83% 29.82 in 10.0 mi SE 3.5 mph - N/A   Clear
3:52 AM 41.0 °F 39.0 °F 36.1 °F 83% 29.82 in 10.0 mi ESE 3.5 mph - N/A   Clear
4:13 AM 40.1 °F 36.9 °F 36.1 °F 86% 29.82 in 10.0 mi ESE 4.6 mph - N/A   Clear
4:33 AM 39.7 °F 36.5 °F 35.6 °F 85% 29.80 in 10.0 mi ESE 4.6 mph - N/A   Clear
4:52 AM 37.6 °F 34.0 °F 34.3 °F 88% 29.79 in 10.0 mi ESE 4.6 mph - N/A   Clear
5:13 AM 40.3 °F 36.3 °F 35.6 °F 83% 29.78 in 10.0 mi SE 5.8 mph - N/A   Clear
5:32 AM 39.9 °F 35.1 °F 35.6 °F 85% 29.78 in 10.0 mi SE 6.9 mph - N/A   Clear
5:52 AM 41.0 °F - 35.6 °F 81% 29.77 in 10.0 mi Calm Calm - N/A   Clear
6:13 AM 39.4 °F 35.2 °F 35.6 °F 86% 29.76 in 10.0 mi ESE 5.8 mph - N/A   Clear
6:33 AM 39.6 °F 35.4 °F 35.2 °F 85% 29.75 in 10.0 mi SE 5.8 mph - N/A   Clear
6:52 AM 40.5 °F 36.5 °F 35.6 °F 83% 29.74 in 10.0 mi SE 5.8 mph - N/A   Clear
7:13 AM 39.7 °F 34.9 °F 35.6 °F 85% 29.73 in 10.0 mi SE 6.9 mph - N/A   Clear
7:32 AM 40.8 °F 36.9 °F 36.0 °F 83% 29.72 in 10.0 mi SE 5.8 mph - N/A   Clear
7:53 AM 42.8 °F 39.3 °F 36.1 °F 77% 29.72 in 10.0 mi SE 5.8 mph - N/A   Clear
8:13 AM 42.8 °F 39.3 °F 36.9 °F 80% 29.71 in 10.0 mi SE 5.8 mph - N/A   Clear
8:32 AM 46.2 °F 43.3 °F 37.6 °F 72% 29.72 in 10.0 mi SE 5.8 mph - N/A   Clear
8:53 AM 48.7 °F - 38.3 °F 67% 29.69 in 10.0 mi SE 9.2 mph - N/A   Clear
9:12 AM 50.2 °F - 38.8 °F 65% 29.69 in 10.0 mi SE 5.8 mph - N/A   Clear
9:33 AM 53.1 °F - 39.4 °F 60% 29.69 in 10.0 mi SSE 6.9 mph - N/A   Clear
9:52 AM 55.2 °F - 39.6 °F 56% 29.69 in 10.0 mi South 6.9 mph - N/A   Clear
10:13 AM 57.4 °F - 40.3 °F 53% 29.67 in 10.0 mi South 9.2 mph 16.1 mph N/A   Clear
10:32 AM 60.4 °F - 41.2 °F 49% 29.68 in 10.0 mi South 11.5 mph - N/A   Clear
10:53 AM 61.5 °F - 41.5 °F 48% 29.67 in 10.0 mi South 10.4 mph 16.1 mph N/A   Clear
11:12 AM 63.5 °F - 42.3 °F 46% 29.66 in 10.0 mi South 11.5 mph 16.1 mph N/A   Clear
11:32 AM 65.1 °F - 43.5 °F 45% 29.66 in 10.0 mi South 10.4 mph 18.4 mph N/A   Clear
11:53 AM 67.1 °F - 44.8 °F 45% 29.64 in 10.0 mi South 12.7 mph 20.7 mph N/A   Clear
12:12 PM 67.8 °F - 45.0 °F 44% 29.63 in 10.0 mi South 9.2 mph 17.3 mph N/A   Clear
12:33 PM 70.0 °F - 46.8 °F 43% 29.62 in 10.0 mi SSW 11.5 mph 19.6 mph N/A   Clear
12:53 PM 70.0 °F - 46.2 °F 43% 29.62 in 10.0 mi SW 10.4 mph 18.4 mph N/A   Clear
1:12 PM 67.5 °F - 46.0 °F 46% 29.62 in 10.0 mi SW 12.7 mph 19.6 mph N/A   Clear
1:33 PM 68.2 °F - 46.6 °F 46% 29.62 in 10.0 mi WSW 12.7 mph 18.4 mph N/A   Clear
1:53 PM 70.5 °F - 47.8 °F 44% 29.62 in 10.0 mi WSW 12.7 mph - N/A   Clear
2:13 PM 68.5 °F - 46.9 °F 46% 29.60 in 10.0 mi WSW 9.2 mph - N/A   Clear
2:33 PM 68.7 °F - 47.3 °F 46% 29.61 in 10.0 mi West 17.3 mph - N/A   Clear
2:52 PM 69.8 °F - 47.3 °F 45% 29.60 in 10.0 mi West 16.1 mph 23.0 mph N/A   Clear
3:13 PM 71.8 °F - 48.6 °F 44% 29.60 in 10.0 mi West 13.8 mph 20.7 mph N/A   Clear
3:32 PM 72.3 °F - 48.7 °F 43% 29.59 in 10.0 mi West 18.4 mph 23.0 mph N/A   Clear
3:53 PM 69.8 °F - 48.7 °F 47% 29.59 in 10.0 mi WSW 12.7 mph 17.3 mph N/A   Clear
4:12 PM 69.4 °F - 47.5 °F 45% 29.60 in 10.0 mi WSW 11.5 mph 15.0 mph N/A   Clear
4:32 PM 70.9 °F - 47.7 °F 44% 29.59 in 10.0 mi WSW 10.4 mph 13.8 mph N/A   Clear
4:53 PM 70.3 °F - 42.8 °F 37% 29.60 in 10.0 mi West 24.2 mph 29.9 mph N/A   Clear
5:13 PM 69.4 °F - 43.0 °F 38% 29.60 in 10.0 mi West 15.0 mph 21.9 mph N/A   Clear
5:33 PM 68.2 °F - 43.7 °F 41% 29.61 in 10.0 mi West 17.3 mph 25.3 mph N/A   Clear
5:52 PM 65.8 °F - 43.5 °F 44% 29.62 in 10.0 mi West 15.0 mph 26.5 mph N/A   Clear
6:13 PM 62.6 °F - 44.2 °F 51% 29.62 in 10.0 mi WSW 6.9 mph - N/A   Clear
6:32 PM 63.3 °F - 43.9 °F 49% 29.61 in 10.0 mi West 17.3 mph 24.2 mph N/A   Clear
6:53 PM 62.6 °F - 43.9 °F 50% 29.62 in 10.0 mi West 15.0 mph - N/A   Scattered Clouds
7:12 PM 63.7 °F - 44.2 °F 49% 29.62 in 10.0 mi West 19.6 mph 23.0 mph N/A   Mostly Cloudy
7:33 PM 61.9 °F - 44.8 °F 53% 29.63 in 10.0 mi West 11.5 mph - N/A   Scattered Clouds
7:52 PM 60.3 °F - 45.1 °F 57% 29.64 in 10.0 mi West 12.7 mph 18.4 mph N/A   Scattered Clouds
8:13 PM 60.8 °F - 46.0 °F 58% 29.64 in 10.0 mi West 11.5 mph - N/A   Mostly Cloudy
8:33 PM 59.9 °F - 46.4 °F 61% 29.63 in 10.0 mi West 10.4 mph - N/A   Overcast
8:52 PM 59.0 °F - 46.4 °F 63% 29.63 in 10.0 mi West 8.1 mph - N/A   Overcast
9:13 PM 59.0 °F - 46.9 °F 64% 29.63 in 10.0 mi West 9.2 mph - N/A   Overcast
9:32 PM 58.5 °F - 47.3 °F 66% 29.63 in 10.0 mi West 10.4 mph - N/A   Overcast
9:53 PM 58.5 °F - 47.3 °F 66% 29.62 in 10.0 mi West 10.4 mph - N/A   Overcast
10:12 PM 59.2 °F - 47.7 °F 66% 29.62 in 10.0 mi West 16.1 mph 21.9 mph N/A   Overcast
10:32 PM 59.2 °F - 48.2 °F 67% 29.62 in 10.0 mi West 15.0 mph 21.9 mph N/A   Overcast
10:52 PM 58.6 °F - 48.6 °F 69% 29.63 in 10.0 mi WNW 16.1 mph 28.8 mph N/A   Overcast
11:12 PM 57.9 °F - 48.7 °F 71% 29.63 in 10.0 mi WNW 11.5 mph - N/A   Overcast
11:32 PM 57.6 °F - 49.1 °F 73% 29.63 in 10.0 mi West 16.1 mph 21.9 mph N/A   Overcast
11:52 PM 56.3 °F - 47.5 °F 72% 29.63 in 10.0 mi West 25.3 mph 32.2 mph N/A   Overcast